Regional Weather Roundup
Issued by NWS

Home | Current Version | Previous Version | Graphics & Text | Print | Product List | Glossary On
Versions: 1 2 3 4 5 6 7 8 9 10 11 12 13 14 15 16 17 18 19 20 21 22 23 24 25 26 27 28 29 30 31 32 33 34 35 36 37 38 39 40 41 42 43 44 45 46 47 48 49 50
000
ASUS45 KABQ 292210
RWRNM
NEW MEXICO REGIONAL WEATHER ROUNDUP
NATIONAL WEATHER SERVICE ALBUQUERQUE NM
400 PM MDT FRI APR 29 2016

NOTE: "FAIR" MEANS FEW OR NO CLOUDS BELOW 12,000 FEET AGL WITH NO
       SIGNIFICANT WEATHER OR OBSTRUCTIONS TO VISION.

      THIS PRODUCT IS RELEASED AS TWO VERSIONS.  ONE VERSION NEAR
      THE TOP OF THE HOUR CONTAINING PRELIMINARY DATA FROM ALBUQUERQUE
      AND OTHER STATIONS.  A FINAL VERSION WITH ADDITIONAL DATA IS
      ISSUED ABOUT 10 MINUTES AFTER THE HOUR.

NMZ501-503-504-510>518-292300-
NORTHWEST PLATEAU/NORTHCENTRAL MOUNTAINS

CITY           SKY/WX    TMP DP  RH WIND       PRES   REMARKS
FARMINGTON     FAIR      58  28  32 W20G25    29.77F
LOS ALAMOS     LGT RAIN  40  32  72 NE10      29.84R WCI  34
SANTA FE       CLOUDY    53  24  32 W16       29.79F
TAOS           CLOUDY    45  28  53 W21       29.82F
ANGEL FIRE     FAIR      37  30  74 SW7       29.83F WCI  32

$$
NMZ402-403-502-505>509-292300-
WESTCENTRAL MOUNTAINS/SOUTHWEST MOUNTAINS

CITY           SKY/WX    TMP DP  RH WIND       PRES   REMARKS
GALLUP         LGT RAIN  50  36  58 NW12      29.85F
GRANTS         PTSUNNY   54  28  36 W18G40    29.86S
SILVER CITY      N/A     61  28  29 W30G36    29.91F

$$
NMZ407-409-411-412-292300-
SOUTHERN DESERTS

CITY           SKY/WX    TMP DP  RH WIND       PRES   REMARKS
LORDSBURG      PTSUNNY   66  30  26 W14G24    29.88F
DEMING         FAIR      69  28  21 W24G31    29.85F
LAS CRUCES     FAIR      70  22  16 W20G36    29.84F
HOLLOMAN AFB   FAIR      72  18  13 NW7G20    29.77F
ALAMOGORDO     FAIR      68  18  14 S7G16     29.79F
T OR C         PTSUNNY   66  19  16 VRB6G17   29.78F

$$
NMZ519>523-292300-
CENTRAL VALLEYS/CENTRAL HIGHLANDS

CITY           SKY/WX    TMP DP  RH WIND       PRES   REMARKS
ALBUQUERQUE    PTSUNNY   56  28  34 NW8       29.79F
DOUBLE EAGLE   LGT RAIN  57  28  33 SW15G26   29.81
MORIARTY ARPT  PTSUNNY   53  26  34 W15       29.84S
CLINES CORNERS CLOUDY    47  24  40 W29G37    29.82R
BELEN          CLOUDY    61  22  23 W24G30    29.80F
SOCORRO        CLOUDY    65  23  20 W9G18     29.80F

$$
NMZ524>526-539-540-292300-
SOUTHCENTRAL MOUNTAINS

CITY           SKY/WX    TMP DP  RH WIND       PRES   REMARKS
RUIDOSO          N/A     57  16  19 W25G35    29.85F

$$
NMZ527>531-292300-
NORTHEAST HIGHLANDS/NORTHEAST PLAINS

CITY           SKY/WX    TMP DP  RH WIND       PRES   REMARKS
LAS VEGAS      FAIR      52  24  33 W15G26    29.78F
RATON          CLOUDY    42  32  67 CALM      29.79F
CLAYTON        CLOUDY    46  37  71 N12       29.79F

$$
NMZ532>537-292300-
EASTCENTRAL PLAINS

CITY           SKY/WX    TMP DP  RH WIND       PRES   REMARKS
TUCUMCARI      FAIR      59  40  49 VRB5      29.74F
CANNON AFB     NOT AVBL
CLOVIS AIRPORT FAIR      66  37  34 W16G25    29.74F

$$
NMZ028-029-538-292300-
SOUTHEAST PLAINS

CITY           SKY/WX    TMP DP  RH WIND       PRES   REMARKS
ROSWELL        FAIR      75  15  10 CALM      29.69F
ARTESIA        FAIR      77  16  10 SW26G33   29.69S
CARLSBAD       FAIR      77  13   9 W31G38    29.71F
HOBBS          SUNNY     75  10   8 SW22G35   29.72F


$$



USA.gov is the U.S. government's official web portal to all federal, state and local government web resources and services.